Location: Chagrin Falls Park
(41.4139°N, 81.3865°W)
Time: 10:24:08
(UTC+00:00)

X-37B - Pass Details

Date: 03 August 2021
Orbit: 381 x 393 km, 45.0° (Epoch: 29 August)

Event Time Altitude Azimuth Distance (km) Brightness Sun altitude
Exits shadow 07:49:06 16° 100° (E) 1,086 3.1 -23.1°
Drops below altitude 10° 07:50:03 10° 88° (E) 1,395 3.9 -23.0°
Sets 07:52:18 0° 75° (ENE) 2,251 5.2 -22.8°
